Change the Weather History Date:

Tuesday, August 13, 2013

  Actual Average Record
Temperature  
Mean Temperature 83 °F -  
Max Temperature 92 °F 85 °F 100 °F (2007)
Min Temperature 74 °F 66 °F 51 °F (1979)
Cooling Degree Days 18    
Growing Degree Days 33 (Base 50)    
Moisture  
Dew Point 74 °F    
Average Humidity 82    
Maximum Humidity 100    
Minimum Humidity 50    
Precipitation  
Precipitation 0.16 in - - ()
Sea Level Pressure  
Sea Level Pressure 29.88 in    
Wind  
Wind Speed 3 mph (SW)    
Max Wind Speed 10 mph    
Max Gust Speed 16 mph    
Visibility 8 miles    
Events Rain    
Averages and records for this station are not official NWS values.
T = Trace of Precipitation, MM = Missing Value Source: NWS Daily Summary

Daily Weather History Graph

Daily Weather History Graph

Search for Another Location

Airport or City:

Trip Planner

Search our weather history database for the weather conditions in past years. The results will help you decide how hot, cold, wet, or windy it might be!

Date:

Astronomy

Aug. 13, 2013 Rise Set
Actual Time 6:33 AM EDT 8:05 PM EDT
Civil Twilight 6:05 AM EDT 8:32 PM EDT
Nautical Twilight 5:33 AM EDT 9:05 PM EDT
Astronomical Twilight 4:59 AM EDT 9:39 PM EDT
Moon 1:08 PM EDT (8/13) 11:57 PM EDT (8/13)
Length of Visible Light 14h 27m
Length of Day
13h 32m
Waxing Crescent, 41% of the Moon is Illuminated
Aug 13
Waxing Crescent
Aug 14
First Quarter
Aug 20
Full
Aug 28
Last Quarter
Sep 5
New

Hourly Weather History & Observations

Time (EDT) Temp. Heat Index Dew Point Humidity Pressure Visibility Wind Dir Wind Speed Gust Speed Precip Events Conditions
12:15 AM 79.5 °F - 73.6 °F 82% 29.96 in 0.8 mi South 3.5 mph - N/A   Haze
12:55 AM 79.3 °F - 75.2 °F 87% 29.96 in 10.0 mi Calm Calm - N/A   Scattered Clouds
1:15 AM 79.3 °F - 75.0 °F 87% 29.95 in 10.0 mi WSW 3.5 mph - N/A   Clear
1:35 AM 78.8 °F - 75.6 °F 90% 29.95 in 10.0 mi Calm Calm - N/A   Scattered Clouds
1:55 AM 78.1 °F - 75.6 °F 92% 29.95 in 10.0 mi Calm Calm - N/A   Scattered Clouds
2:15 AM 77.9 °F - 75.6 °F 92% 29.96 in 10.0 mi Calm Calm - N/A   Scattered Clouds
2:35 AM 77.9 °F - 74.8 °F 90% 29.94 in 10.0 mi Calm Calm - N/A   Scattered Clouds
2:55 AM 77.5 °F - 75.2 °F 92% 29.96 in 10.0 mi WSW 4.6 mph - N/A   Mostly Cloudy
3:15 AM 76.6 °F - 75.0 °F 95% 29.95 in 7.0 mi Calm Calm - N/A Rain Light Rain
3:35 AM 76.1 °F - 74.7 °F 95% 29.94 in 7.0 mi Calm Calm - 0.01 in Rain Rain
3:55 AM 75.6 °F - 74.7 °F 97% 29.93 in 5.0 mi Calm Calm - 0.04 in Rain Light Rain
4:15 AM 76.1 °F - 75.2 °F 97% 29.92 in 5.0 mi Calm Calm - 0.01 in Rain Light Rain
4:35 AM 75.9 °F - 75.4 °F 98% 29.90 in 7.0 mi East 3.5 mph - 0.01 in   Scattered Clouds
5:15 AM 75.2 °F - 75.0 °F 99% 29.90 in 4.0 mi South 4.6 mph - N/A   Clear
5:35 AM 75.2 °F - 75.2 °F 100% 29.90 in 4.0 mi Calm Calm - N/A   Clear
5:55 AM 74.8 °F - 74.8 °F 100% 29.90 in 3.0 mi South 5.8 mph - N/A   Clear
6:15 AM 74.7 °F - 74.7 °F 100% 29.90 in 3.0 mi South 5.8 mph - N/A   Scattered Clouds
6:35 AM 74.3 °F - 74.3 °F 100% 29.91 in 4.0 mi South 4.6 mph - N/A   Scattered Clouds
6:55 AM 74.3 °F - 73.9 °F 99% 29.91 in 4.0 mi South 4.6 mph - N/A   Clear
7:15 AM 74.3 °F - 73.9 °F 99% 29.90 in 5.0 mi South 5.8 mph - N/A   Clear
7:35 AM 74.7 °F - 74.5 °F 99% 29.90 in 5.0 mi South 4.6 mph - 0.01 in   Scattered Clouds
7:55 AM 75.2 °F - 74.7 °F 98% 29.90 in 7.0 mi South 5.8 mph - 0.01 in   Mostly Cloudy
8:15 AM 76.1 °F - 75.0 °F 96% 29.90 in 7.0 mi South 5.8 mph - N/A   Mostly Cloudy
8:35 AM 77.5 °F - 75.4 °F 93% 29.90 in 10.0 mi SSW 6.9 mph - N/A   Mostly Cloudy
8:55 AM 78.8 °F - 75.9 °F 91% 29.90 in 10.0 mi SSW 6.9 mph - N/A   Mostly Cloudy
9:15 AM 80.2 °F 85.5 °F 75.2 °F 85% 29.90 in 10.0 mi SSW 5.8 mph - N/A   Scattered Clouds
9:35 AM 81.3 °F 86.8 °F 73.8 °F 78% 29.91 in 10.0 mi SW 6.9 mph - N/A   Scattered Clouds
9:55 AM 82.2 °F 87.8 °F 73.2 °F 74% 29.92 in 10.0 mi WSW 5.8 mph - N/A   Scattered Clouds
10:15 AM 83.7 °F 90.1 °F 73.2 °F 71% 29.92 in 10.0 mi WSW 4.6 mph - N/A   Mostly Cloudy
10:35 AM 82.8 °F 88.7 °F 73.2 °F 73% 29.92 in 10.0 mi SW 6.9 mph - N/A   Mostly Cloudy
10:55 AM 82.8 °F 88.2 °F 72.7 °F 71% 29.92 in 10.0 mi SW 9.2 mph - N/A   Mostly Cloudy
11:15 AM 84.2 °F 90.6 °F 72.9 °F 69% 29.92 in 10.0 mi SW 10.4 mph - N/A   Scattered Clouds
11:35 AM 85.3 °F 92.2 °F 73.0 °F 67% 29.92 in 10.0 mi SW 6.9 mph - N/A   Scattered Clouds
11:55 AM 86.2 °F 93.8 °F 73.4 °F 66% 29.91 in 10.0 mi SW 10.4 mph 16.1 mph N/A   Scattered Clouds
12:15 PM 86.2 °F 93.0 °F 72.5 °F 64% 29.90 in 10.0 mi WSW 4.6 mph - N/A   Mostly Cloudy
12:35 PM 86.9 °F 93.7 °F 72.3 °F 62% 29.89 in 10.0 mi WSW 4.6 mph - N/A   Mostly Cloudy
12:55 PM 88.9 °F 95.1 °F 71.4 °F 56% 29.87 in 10.0 mi SW 5.8 mph - N/A   Scattered Clouds
1:15 PM 89.1 °F 95.5 °F 71.4 °F 56% 29.86 in 10.0 mi WSW 5.8 mph - N/A   Scattered Clouds
1:35 PM 90.3 °F 96.7 °F 71.2 °F 53% 29.86 in 10.0 mi West 5.8 mph - N/A   Mostly Cloudy
1:55 PM 90.9 °F 96.2 °F 70.2 °F 50% 29.85 in 10.0 mi SW 6.9 mph - N/A   Scattered Clouds
2:15 PM 90.5 °F 97.5 °F 71.8 °F 54% 29.84 in 10.0 mi West 4.6 mph - N/A   Scattered Clouds
2:35 PM 89.1 °F 95.0 °F 71.2 °F 55% 29.84 in 10.0 mi West 3.5 mph - N/A   Scattered Clouds
2:55 PM 92.1 °F 98.8 °F 70.9 °F 50% 29.83 in 10.0 mi SW 8.1 mph - N/A   Scattered Clouds
3:15 PM 91.4 °F 97.3 °F 70.5 °F 50% 29.82 in 10.0 mi WSW 4.6 mph - N/A   Mostly Cloudy
3:35 PM 86.7 °F 94.6 °F 73.6 °F 65% 29.83 in 5.0 mi WNW 6.9 mph - 0.01 in Rain Rain
3:55 PM 82.2 °F 88.5 °F 74.3 °F 77% 29.82 in 10.0 mi SSE 4.6 mph - 0.06 in   Mostly Cloudy
4:15 PM 82.8 °F 89.2 °F 73.9 °F 75% 29.81 in 10.0 mi Calm Calm - N/A   Mostly Cloudy
4:35 PM 84.4 °F 92.4 °F 74.8 °F 73% 29.81 in 10.0 mi Calm Calm - N/A   Scattered Clouds
4:55 PM 81.5 °F 86.1 °F 72.0 °F 73% 29.81 in 10.0 mi Calm Calm - N/A   Light Drizzle
5:15 PM 83.5 °F 90.6 °F 74.3 °F 74% 29.80 in 10.0 mi Calm Calm - N/A   Scattered Clouds
5:35 PM 84.9 °F 92.9 °F 74.5 °F 71% 29.80 in 10.0 mi WSW 3.5 mph - N/A   Clear
5:55 PM 85.1 °F 93.7 °F 75.2 °F 72% 29.79 in 10.0 mi SW 4.6 mph - N/A   Clear
6:15 PM 85.8 °F 94.6 °F 75.0 °F 70% 29.80 in 10.0 mi West 3.5 mph - N/A   Scattered Clouds
6:35 PM 86.5 °F 95.5 °F 74.7 °F 68% 29.81 in 10.0 mi WSW 4.6 mph - N/A   Scattered Clouds
6:55 PM 86.0 °F 94.2 °F 74.3 °F 68% 29.79 in 10.0 mi WSW 4.6 mph - N/A   Scattered Clouds
7:55 PM 77.5 °F - 70.0 °F 77% 29.82 in 10.0 mi NNW 3.5 mph - N/A   Scattered Clouds
8:15 PM 76.3 °F - 73.6 °F 91% 29.82 in 10.0 mi SSW 3.5 mph - 0.01 in   Mostly Cloudy
8:35 PM 77.2 °F - 74.5 °F 91% 29.82 in 10.0 mi South 3.5 mph - 0.01 in   Mostly Cloudy
8:55 PM 77.0 °F - 74.5 °F 92% 29.82 in 10.0 mi SSW 5.8 mph - 0.01 in   Scattered Clouds
9:15 PM 77.2 °F - 74.3 °F 91% 29.84 in 10.0 mi SSW 3.5 mph - N/A   Scattered Clouds
9:35 PM 77.5 °F - 73.6 °F 88% 29.84 in 2.0 mi Calm Calm - N/A   Mostly Cloudy
9:55 PM 76.8 °F - 74.3 °F 92% 29.85 in 10.0 mi West 4.6 mph - N/A   Mostly Cloudy
10:15 PM 77.0 °F - 74.7 °F 92% 29.86 in 7.0 mi SSW 5.8 mph - 0.02 in Rain Rain
10:35 PM 75.4 °F - 74.1 °F 96% 29.86 in 10.0 mi SW 3.5 mph - 0.03 in Rain Rain
10:55 PM 75.0 °F - 74.1 °F 97% 29.84 in 10.0 mi Calm Calm - 0.03 in Rain Light Rain
11:15 PM 74.8 °F - 74.3 °F 98% 29.86 in 10.0 mi South 4.6 mph - N/A   Overcast
11:35 PM 74.3 °F - 73.8 °F 98% 29.85 in 7.0 mi Calm Calm - N/A   Drizzle
11:55 PM 74.1 °F - 73.6 °F 98% 29.85 in 7.0 mi Calm Calm - N/A   Light Drizzle